NSS-12

Last updated on Tue Sep 22 2026 00:03:11 GMT+0000 (Coordinated Universal Time)

1 36032U 09058A 26264.61038382 .00000068 00000+0 00000+0 0 9999 2 36032 0.0328 78.1499 0003120 61.6701 137.4219 1.00273124 61884
UTC large
Height (km)
Speed (km/s)
/
Latitude / Longitude
Inclination (degrees)
Orbital Period (minutes)
Azimuth
Elevation
Range (km)
Doppler Factor

Next 0 passes for location: London (51.5072 / 0.1276)

No passes found over London.
NSS-12